Location: Haliburton Scout Reserve
(45.0900°N, 78.3200°W)
Time: 05:23:47
(UTC-05:00)

Explorer 11/Cluster Stage 4 - Visible Passes

Search period start: 31 January 2023 00:00
Search period end: 10 February 2023 00:00
Orbit: 466 x 1244 km, 28.8° (Epoch: 30 January)

Date Brightness Start Highest point End Pass type
(mag) Time Alt. Az. Time Alt. Az. Time Alt. Az.
31 Jan 9.7 05:35:19 10° S 05:38:57 14° SSE 05:42:34 10° SE visible
01 Feb 9.6 05:21:14 10° S 05:25:23 15° SSE 05:29:31 10° SE visible
02 Feb 9.5 05:07:19 10° SSW 05:11:48 16° SSE 05:16:20 10° SE visible
02 Feb 9.3 06:53:38 10° SW 06:59:40 23° S 07:05:32 10° SE visible
03 Feb 9.4 04:54:06 11° SSW 04:58:13 17° SSE 05:03:02 10° SE visible
03 Feb 9.2 06:40:00 10° SW 06:46:05 24° S 06:52:05 10° SE visible
04 Feb 9.2 04:41:49 15° S 04:44:37 18° SSE 04:49:39 10° SE visible
04 Feb 9.1 06:26:25 10° SW 06:32:30 24° S 06:38:36 10° SE visible
05 Feb 9.1 04:29:26 17° S 04:31:01 19° SSE 04:36:11 10° ESE visible
05 Feb 9.1 06:12:52 10° SW 06:18:54 24° S 06:25:03 10° SE visible
06 Feb 9.0 04:17:00 19° SSE 04:17:26 19° SSE 04:22:39 10° ESE visible
06 Feb 9.0 05:59:23 10° SW 06:05:18 24° S 06:11:25 10° SE visible
07 Feb 9.1 04:04:31 19° SSE 04:04:31 19° SSE 04:09:04 10° SE visible
07 Feb 9.0 05:46:29 12° SW 05:51:42 23° S 05:57:45 10° SE visible
08 Feb 9.1 03:52:00 18° SSE 03:52:00 18° SSE 03:55:26 10° SE visible
08 Feb 8.9 05:33:57 15° SW 05:38:06 23° S 05:44:00 10° SE visible
09 Feb 9.3 03:39:28 16° SE 03:39:28 16° SE 03:41:45 10° SE visible
09 Feb 8.8 05:21:25 17° SW 05:24:30 22° S 05:30:13 10° SE visible
